User: anonymous   Login
Location: Bonn
(50.7330°N, 7.1000°E)
Time: 07:34:13
(UTC+02:00)
Language:

Cosmos 1933 Rocket - Orbit

View from above orbital plane
View from above orbital plane
View from above satellite
View from above satellite

Ground track
Ground track

The orbit data is extracted from the following two-line orbital elements,

1 18959U 88020B   17268.46861591 +.00000096 +00000-0 +87919-5 0  9998
2 18959 082.5403 177.1168 0017275 161.4256 198.7593 14.83351491574360
Epoch (UTC): 25 September 2017 11:14:48
Eccentricity: 0.0017275
inclination: 82.5403°
perigee height: 606 km
apogee height: 631 km
right ascension of ascending node: 177.1168°
argument of perigee: 161.4256°
revolutions per day: 14.83351491
mean anomaly at epoch: 198.7593°
orbit number at epoch: 57436

The dashed part of the orbit path shows where the satellite is in the earth's shadow,  

DLR